New Ulm, MN

10:11 PM CDT on September 16, 2019 (GMT -0500)
New Ulm Municipal

Weather History for KULM - July, 2019

Change the Weather History Date:

Saturday, July 20, 2019

  Actual Average Record
Temperature  
Mean Temperature 68 °F -  
Max Temperature 78 °F 83 °F 98 °F (1983)
Min Temperature 59 °F 61 °F 47 °F (1970)
Cooling Degree Days 4    
Growing Degree Days 18 (Base 50)    
Moisture  
Dew Point 62 °F    
Average Humidity 80    
Maximum Humidity 94    
Minimum Humidity 65    
Precipitation  
Precipitation 0.00 in - - ()
Sea Level Pressure  
Sea Level Pressure 29.87 in    
Wind  
Wind Speed 8 mph (NNE)    
Max Wind Speed 36 mph    
Max Gust Speed 46 mph    
Visibility 10 miles    
Events Rain , Thunderstorm    
Averages and records for this station are not official NWS values.
T = Trace of Precipitation, MM = Missing Value Source: NWS Daily Summary

Daily Weather History Graph

Daily Weather History Graph

Search for Another Location

Airport or City:

Astronomy

Jul. 20, 2019 Rise Set
Actual Time 5:52 AM CDT 8:55 PM CDT
Civil Twilight 5:17 AM CDT 9:30 PM CDT
Nautical Twilight 4:33 AM CDT 10:14 PM CDT
Astronomical Twilight 3:39 AM CDT 11:07 PM CDT
Moon 11:16 PM CDT (7/20) 9:22 AM CDT (7/20)
Length of Visible Light 16h 12m
Length of Day
15h 03m
Waning Gibbous, 87% of the Moon is Illuminated
Jul 20
Waning Gibbous
Jul 24
Last Quarter
Jul 31
New
Aug 7
First Quarter
Aug 15
Full

Hourly Weather History & Observations

Time (CDT) Temp. Dew Point Humidity Pressure Visibility Wind Dir Wind Speed Gust Speed Precip Events Conditions
12:15 AM 78.8 °F 71.6 °F 78% 29.76 in 10.0 mi North 5.8 mph - N/A   Clear
12:35 AM 77.0 °F 71.6 °F 83% 29.76 in 10.0 mi North 3.5 mph - N/A   Clear
12:55 AM 77.0 °F 71.6 °F 83% 29.77 in 10.0 mi NNE 6.9 mph - N/A   Scattered Clouds
12:56 AM 77.0 °F 71.6 °F 83% 29.77 in 10.0 mi North 6.9 mph - N/A   Scattered Clouds
1:15 AM 75.2 °F 71.6 °F 89% 29.77 in 10.0 mi NNE 4.6 mph - N/A   Scattered Clouds
1:16 AM 75.2 °F 71.6 °F 89% 29.77 in 10.0 mi NNE 4.6 mph - N/A   Scattered Clouds
1:35 AM 75.2 °F 71.6 °F 89% 29.77 in 10.0 mi NNE 10.4 mph - N/A   Clear
1:36 AM 75.2 °F 69.8 °F 83% 29.77 in 10.0 mi NNE 9.2 mph - N/A   Clear
1:55 AM 73.4 °F 68.0 °F 83% 29.77 in 10.0 mi NE 8.1 mph - N/A   Clear
1:56 AM 73.4 °F 68.0 °F 83% 29.77 in 10.0 mi NE 6.9 mph - N/A   Clear
2:15 AM 73.4 °F 68.0 °F 83% 29.77 in 10.0 mi ENE 6.9 mph - N/A   Clear
2:16 AM 73.4 °F 68.0 °F 83% 29.77 in 10.0 mi ENE 5.8 mph - N/A   Clear
2:35 AM 73.4 °F 68.0 °F 83% 29.76 in 10.0 mi NE 5.8 mph - N/A   Scattered Clouds
2:36 AM 73.4 °F 68.0 °F 83% 29.76 in 10.0 mi ENE 6.9 mph - N/A   Scattered Clouds
2:55 AM 73.4 °F 68.0 °F 83% 29.76 in 10.0 mi ENE 6.9 mph - N/A   Scattered Clouds
2:56 AM 73.4 °F 68.0 °F 83% 29.76 in 10.0 mi NE 8.1 mph - N/A   Scattered Clouds
3:15 AM 73.4 °F 66.2 °F 78% 29.76 in 10.0 mi ENE 5.8 mph - N/A   Clear
3:16 AM 73.4 °F 66.2 °F 78% 29.76 in 10.0 mi ENE 5.8 mph - N/A   Clear
3:35 AM 73.4 °F 66.2 °F 78% 29.75 in 10.0 mi ENE 4.6 mph - N/A   Scattered Clouds
3:55 AM 73.4 °F 66.2 °F 78% 29.75 in 10.0 mi NE 8.1 mph - N/A   Scattered Clouds
4:15 AM 73.4 °F 66.2 °F 78% 29.76 in 10.0 mi NE 5.8 mph - N/A   Scattered Clouds
4:35 AM 71.6 °F 66.2 °F 83% 29.77 in 10.0 mi NNE 9.2 mph - N/A   Mostly Cloudy
4:36 AM 71.6 °F 66.2 °F 83% 29.77 in 10.0 mi North 8.1 mph - N/A   Mostly Cloudy
4:55 AM 71.6 °F 66.2 °F 83% 29.78 in 10.0 mi NNE 9.2 mph - N/A   Mostly Cloudy
4:56 AM 71.6 °F 66.2 °F 83% 29.78 in 10.0 mi NNE 8.1 mph - N/A   Mostly Cloudy
5:15 AM 71.6 °F 66.2 °F 83% 29.77 in 10.0 mi NNE 10.4 mph - N/A   Scattered Clouds
5:35 AM 71.6 °F 66.2 °F 83% 29.76 in 10.0 mi NNE 12.7 mph 18.4 mph N/A   Scattered Clouds
5:36 AM 71.6 °F 66.2 °F 83% 29.76 in 10.0 mi NNE 13.8 mph 18.4 mph N/A   Scattered Clouds
5:55 AM 71.6 °F 64.4 °F 78% 29.75 in 10.0 mi NE 13.8 mph 17.3 mph N/A Thunderstorm Mostly Cloudy
6:15 AM 71.6 °F 64.4 °F 78% 29.70 in 10.0 mi NNE 17.3 mph 26.5 mph N/A Thunderstorm Mostly Cloudy
6:35 AM 71.6 °F 64.4 °F 78% 29.79 in 10.0 mi North 13.8 mph 20.7 mph N/A Rain , Thunderstorm Light Thunderstorms and Rain
6:55 AM 69.8 °F 66.2 °F 88% 29.81 in 7.0 mi NE 5.8 mph - N/A Rain , Thunderstorm Heavy Thunderstorms and Rain
7:15 AM 69.8 °F 66.2 °F 88% 29.87 in 10.0 mi NNW 13.8 mph 32.2 mph N/A Rain , Thunderstorm Heavy Thunderstorms and Rain
7:35 AM 68.0 °F 64.4 °F 88% 29.84 in 10.0 mi NNE 16.1 mph 23.0 mph N/A Rain , Thunderstorm Thunderstorms and Rain
7:55 AM 68.0 °F 64.4 °F 88% 29.76 in 7.0 mi NE 16.1 mph 26.5 mph N/A Rain , Thunderstorm Light Thunderstorms and Rain
8:15 AM 68.0 °F 64.4 °F 88% 29.81 in 10.0 mi NNE 15.0 mph 24.2 mph N/A   Scattered Clouds
8:35 AM 68.0 °F 64.4 °F 88% 29.82 in 10.0 mi NE 12.7 mph 25.3 mph N/A   Clear
8:36 AM 68.0 °F 64.4 °F 88% 29.82 in 10.0 mi NE 15.0 mph 26.5 mph N/A   Clear
8:56 AM 66.2 °F 60.8 °F 83% 29.84 in 10.0 mi NNE 11.5 mph 25.3 mph N/A   Scattered Clouds
9:15 AM 66.2 °F 60.8 °F 83% 29.84 in 10.0 mi ENE 12.7 mph 20.7 mph N/A   Scattered Clouds
9:35 AM 64.4 °F 57.2 °F 77% 29.86 in 10.0 mi NNE 13.8 mph 19.6 mph N/A Thunderstorm Mostly Cloudy
9:36 AM 64.4 °F 57.2 °F 77% 29.88 in 10.0 mi NNE 10.4 mph 19.6 mph N/A Thunderstorm Overcast
9:55 AM 64.4 °F 57.2 °F 77% 30.03 in 7.0 mi NW 35.7 mph 46.0 mph N/A Rain , Thunderstorm Rain
10:15 AM 60.8 °F 57.2 °F 88% 30.09 in 10.0 mi NW 12.7 mph 27.6 mph N/A Rain , Thunderstorm Heavy Thunderstorms and Rain
10:35 AM 60.8 °F 57.2 °F 88% 30.01 in 10.0 mi ENE 11.5 mph 20.7 mph N/A Rain , Thunderstorm Thunderstorms and Rain
10:36 AM 60.8 °F 57.2 °F 88% 30.01 in 10.0 mi ENE 8.1 mph 20.7 mph N/A Rain , Thunderstorm Thunderstorms and Rain
10:55 AM 60.8 °F 55.4 °F 82% 29.95 in 10.0 mi East 13.8 mph - N/A Rain , Thunderstorm Rain
11:15 AM 59.0 °F 55.4 °F 88% 29.87 in 10.0 mi East 21.9 mph 29.9 mph N/A Rain , Thunderstorm Light Thunderstorms and Rain
11:16 AM 59.0 °F 55.4 °F 88% 29.87 in 10.0 mi East 21.9 mph 29.9 mph N/A Rain , Thunderstorm Light Thunderstorms and Rain
11:35 AM 60.8 °F 55.4 °F 82% 29.86 in 10.0 mi East 16.1 mph 26.5 mph N/A Rain Light Rain
11:55 AM 60.8 °F 55.4 °F 82% 29.78 in 10.0 mi East 20.7 mph 27.6 mph N/A   Light Drizzle
11:56 AM 60.8 °F 55.4 °F 82% 29.78 in 10.0 mi East 20.7 mph 27.6 mph N/A   Light Drizzle
12:15 PM 60.8 °F 57.2 °F 88% 29.77 in 10.0 mi ESE 17.3 mph 23.0 mph N/A   Clear
12:35 PM 60.8 °F 55.4 °F 82% 29.77 in 10.0 mi ESE 13.8 mph 23.0 mph N/A   Clear
12:55 PM 60.8 °F 55.4 °F 82% 29.79 in 10.0 mi ESE 11.5 mph 20.7 mph N/A   Clear
1:15 PM 62.6 °F 55.4 °F 77% 29.82 in 10.0 mi East 6.9 mph - N/A   Clear
1:35 PM 64.4 °F 57.2 °F 77% 29.88 in 10.0 mi NNW 12.7 mph 20.7 mph N/A   Clear
1:55 PM 64.4 °F 57.2 °F 77% 29.88 in 10.0 mi North 12.7 mph 16.1 mph N/A   Clear
2:15 PM 64.4 °F 57.2 °F 77% 29.88 in 10.0 mi North 8.1 mph - N/A   Clear
2:16 PM 64.4 °F 57.2 °F 77% 29.88 in 10.0 mi North 8.1 mph - N/A   Clear
2:35 PM 64.4 °F 57.2 °F 77% 29.89 in 10.0 mi NNW 11.5 mph 16.1 mph N/A   Clear
2:36 PM 64.4 °F 57.2 °F 77% 29.89 in 10.0 mi North 10.4 mph 16.1 mph N/A   Clear
2:55 PM 64.4 °F 57.2 °F 77% 29.92 in 10.0 mi NNW 5.8 mph - N/A   Clear
3:15 PM 66.2 °F 57.2 °F 73% 29.93 in 10.0 mi NW 3.5 mph - N/A   Clear
3:35 PM 66.2 °F 59.0 °F 78% 29.93 in 10.0 mi NW 4.6 mph - N/A   Clear
3:36 PM 66.2 °F 59.0 °F 78% 29.93 in 10.0 mi NW 4.6 mph - N/A   Clear
3:55 PM 66.2 °F 57.2 °F 73% 29.94 in 10.0 mi NW 8.1 mph - N/A   Clear
3:56 PM 66.2 °F 59.0 °F 78% 29.94 in 10.0 mi NW 8.1 mph - N/A   Clear
4:15 PM 68.0 °F 59.0 °F 73% 29.94 in 10.0 mi NW 8.1 mph - N/A   Clear
4:16 PM 68.0 °F 59.0 °F 73% 29.94 in 10.0 mi NW 8.1 mph - N/A   Clear
4:35 PM 69.8 °F 59.0 °F 68% 29.93 in 10.0 mi NNW 8.1 mph - N/A   Clear
4:55 PM 71.6 °F 60.8 °F 69% 29.94 in 10.0 mi NNW 10.4 mph - N/A   Clear
5:15 PM 71.6 °F 60.8 °F 69% 29.94 in 10.0 mi NNW 10.4 mph - N/A   Clear
5:35 PM 71.6 °F 60.8 °F 69% 29.94 in 10.0 mi North 8.1 mph - N/A   Clear
5:55 PM 73.4 °F 62.6 °F 69% 29.94 in 10.0 mi North 6.9 mph - N/A   Clear
6:15 PM 73.4 °F 60.8 °F 65% 29.94 in 10.0 mi North 8.1 mph - N/A   Clear
6:16 PM 73.4 °F 60.8 °F 65% 29.94 in 10.0 mi North 9.2 mph - N/A   Clear
6:35 PM 73.4 °F 60.8 °F 65% 29.94 in 10.0 mi North 6.9 mph - N/A   Clear
6:55 PM 73.4 °F 60.8 °F 65% 29.94 in 10.0 mi North 6.9 mph - N/A   Clear
6:56 PM 73.4 °F 60.8 °F 65% 29.93 in 10.0 mi North 6.9 mph - N/A   Clear
7:15 PM 73.4 °F 60.8 °F 65% 29.95 in 10.0 mi North 4.6 mph - N/A   Clear
7:35 PM 73.4 °F 60.8 °F 65% 29.96 in 10.0 mi NE 6.9 mph - N/A   Clear
7:55 PM 71.6 °F 60.8 °F 69% 29.97 in 10.0 mi NNE 5.8 mph - N/A   Clear
8:15 PM 71.6 °F 62.6 °F 73% 29.98 in 10.0 mi NE 3.5 mph - N/A   Clear
8:16 PM 71.6 °F 62.6 °F 73% 29.97 in 10.0 mi NE 3.5 mph - N/A   Clear
8:35 PM 71.6 °F 62.6 °F 73% 29.98 in 10.0 mi Calm Calm - N/A   Clear
8:55 PM 71.6 °F 60.8 °F 69% 29.99 in 10.0 mi Calm Calm - N/A   Clear
8:56 PM 69.8 °F 60.8 °F 73% 29.99 in 10.0 mi Calm Calm - N/A   Clear
9:15 PM 69.8 °F 60.8 °F 73% 29.99 in 10.0 mi Calm Calm - N/A   Clear
9:35 PM 68.0 °F 62.6 °F 83% 29.99 in 10.0 mi Calm Calm - N/A   Clear
9:55 PM 66.2 °F 62.6 °F 88% 30.00 in 10.0 mi Calm Calm - N/A   Clear
10:15 PM 66.2 °F 62.6 °F 88% 30.00 in 10.0 mi Calm Calm - N/A   Clear
10:35 PM 64.4 °F 62.6 °F 94% 30.00 in 10.0 mi Calm Calm - N/A   Clear
10:55 PM 64.4 °F 62.6 °F 94% 29.99 in 10.0 mi Calm Calm - N/A   Clear
11:15 PM 64.4 °F 60.8 °F 88% 30.00 in 10.0 mi Calm Calm - N/A   Clear
11:16 PM 64.4 °F 60.8 °F 88% 30.00 in 10.0 mi Calm Calm - N/A   Clear
11:35 PM 62.6 °F 60.8 °F 94% 30.00 in 10.0 mi Calm Calm - N/A   Clear
11:36 PM 62.6 °F 60.8 °F 94% 30.00 in 10.0 mi Calm Calm - N/A   Clear
11:55 PM 62.6 °F 60.8 °F 94% 30.00 in 10.0 mi Calm Calm - N/A   Clear
11:56 PM 62.6 °F 60.8 °F 94% 30.00 in 10.0 mi Calm Calm - N/A   Clear